| time (UTC) | temp F | wind direction | speed knots | gust knots | rain 1hr in | rain 24hr in | rain mn in | humidity % | barometer mb |
| 20260504130518 | 61 | 45 | 3.5 | 8.7 | 0.34 | 0.35 | 0.35 | 87 | 1010.7 |
| 20260504110518 | 70 | 135 | 4.3 | 8.7 | 0.00 | 0.00 | 0.00 | 67 | 1011.3 |
| 20260504100518 | 71 | 45 | 1.7 | 4.3 | 0.00 | 0.00 | 0.00 | 63 | 1011.7 |
| 20260504081517 | 64 | 68 | 1.7 | 2.6 | 0.00 | 0.00 | 0.00 | 76 | 1012.5 |
| 20260504080517 | 64 | 315 | 1.7 | 4.3 | 0.00 | 0.00 | 0.00 | 75 | 1012.6 |
| 20260504050517 | 57 | 225 | 0.9 | 1.7 | 0.00 | 0.00 | 0.00 | 90 | 1012.7 |
| 20260504045517 | 57 | 225 | 0.9 | 1.7 | 0.00 | 0.00 | 0.00 | 90 | 1012.8 |
| 20260504044516 | 57 | 293 | 0.9 | 1.7 | 0.00 | 0.00 | 0.00 | 89 | 1012.8 |
| 20260504043516 | 57 | 293 | 0.9 | 1.7 | 0.00 | 0.00 | 0.00 | 89 | 1012.9 |
| 20260504042516 | 57 | 0.0 | 0.9 | 0.00 | 0.00 | 0.00 | 90 | 1012.8 | |
| 20260504041517 | 57 | 0.0 | 2.6 | 0.00 | 0.00 | 0.00 | 90 | 1013.0 | |
| 20260504040516 | 57 | 270 | 0.9 | 2.6 | 0.00 | 0.00 | 0.00 | 90 | 1013.1 |
| 20260504035516 | 57 | 293 | 1.7 | 2.6 | 0.00 | 0.00 | 0.00 | 90 | 1013.2 |
| 20260504034537 | 57 | 270 | 1.7 | 3.5 | 0.00 | 0.00 | 0.00 | 90 | 1013.2 |
| 20260504033517 | 57 | 293 | 2.6 | 5.2 | 0.00 | 0.00 | 0.00 | 90 | 1013.1 |
| 20260504032516 | 57 | 293 | 1.7 | 3.5 | 0.00 | 0.00 | 0.00 | 90 | 1013.0 |
| 20260504031516 | 57 | 293 | 1.7 | 2.6 | 0.00 | 0.00 | 0.00 | 89 | 1013.0 |
| 20260504030516 | 57 | 248 | 0.9 | 1.7 | 0.00 | 0.00 | 0.00 | 89 | 1013.0 |
| 20260504025517 | 57 | 180 | 0.9 | 1.7 | 0.00 | 0.00 | 0.00 | 88 | 1012.9 |
| 20260504024516 | 57 | 293 | 0.9 | 1.7 | 0.00 | 0.00 | 0.00 | 88 | 1012.9 |
| 20260504023537 | 58 | 0.0 | 0.9 | 0.00 | 0.00 | 0.00 | 88 | 1012.9 | |
| 20260504022536 | 58 | 225 | 0.9 | 1.7 | 0.00 | 0.00 | 0.00 | 88 | 1013.0 |
| 20260504021516 | 58 | 203 | 0.9 | 1.7 | 0.00 | 0.00 | 0.00 | 88 | 1013.1 |
| 20260504020517 | 58 | 0.0 | 0.9 | 0.00 | 0.00 | 0.00 | 88 | 1013.0 | |
| 20260504015516 | 58 | 0.0 | 1.7 | 0.00 | 0.00 | 0.00 | 87 | 1013.1 | |
| 20260504014516 | 58 | 203 | 0.9 | 1.7 | 0.00 | 0.00 | 0.00 | 87 | 1013.4 |
| 20260504013516 | 58 | 225 | 0.9 | 2.6 | 0.00 | 0.00 | 0.00 | 87 | 1013.3 |
| 20260504012516 | 58 | 0.0 | 0.9 | 0.00 | 0.00 | 0.00 | 87 | 1013.4 | |
| 20260504011517 | 58 | 203 | 0.9 | 2.6 | 0.00 | 0.00 | 0.00 | 87 | 1013.6 |
| 20260504010516 | 58 | 203 | 0.9 | 1.7 | 0.00 | 0.00 | 0.00 | 87 | 1013.5 |
| 20260504005516 | 58 | 203 | 0.9 | 1.7 | 0.00 | 0.00 | 0.00 | 87 | 1013.8 |
| 20260504004536 | 58 | 135 | 0.9 | 2.6 | 0.00 | 0.00 | 0.00 | 87 | 1013.8 |
| 20260504003517 | 59 | 158 | 1.7 | 3.5 | 0.00 | 0.00 | 0.00 | 87 | 1013.7 |
| 20260504002516 | 59 | 158 | 0.9 | 3.5 | 0.00 | 0.00 | 0.00 | 86 | 1013.8 |
| 20260504001516 | 59 | 180 | 1.7 | 2.6 | 0.00 | 0.00 | 0.00 | 87 | 1013.8 |
| 20260504000516 | 59 | 158 | 2.6 | 4.3 | 0.00 | 0.00 | 0.00 | 86 | 1013.8 |
| 20260503235517 | 59 | 158 | 2.6 | 4.3 | 0.00 | 0.00 | 0.00 | 86 | 1013.9 |
| 20260503234537 | 59 | 180 | 2.6 | 4.3 | 0.00 | 0.00 | 0.00 | 86 | 1013.9 |
| 20260503233517 | 59 | 180 | 2.6 | 4.3 | 0.00 | 0.00 | 0.00 | 86 | 1014.0 |
| 20260503232516 | 59 | 158 | 2.6 | 5.2 | 0.00 | 0.00 | 0.00 | 86 | 1013.9 |
| 20260503231517 | 59 | 135 | 1.7 | 5.2 | 0.00 | 0.00 | 0.00 | 85 | 1014.0 |
| 20260503230517 | 59 | 203 | 1.7 | 3.5 | 0.00 | 0.00 | 0.00 | 85 | 1013.9 |
| 20260503225516 | 59 | 203 | 1.7 | 3.5 | 0.00 | 0.00 | 0.00 | 84 | 1014.0 |
| 20260503224517 | 59 | 203 | 3.5 | 5.2 | 0.00 | 0.00 | 0.00 | 84 | 1014.1 |
| 20260503223517 | 59 | 203 | 0.9 | 3.5 | 0.00 | 0.00 | 0.00 | 83 | 1014.0 |
| 20260503222537 | 59 | 225 | 1.7 | 2.6 | 0.00 | 0.00 | 0.00 | 83 | 1014.0 |
| 20260503221517 | 59 | 180 | 0.9 | 2.6 | 0.00 | 0.00 | 0.00 | 83 | 1013.9 |
| 20260503220517 | 59 | 158 | 2.6 | 5.2 | 0.00 | 0.00 | 0.00 | 82 | 1013.9 |
| 20260503215517 | 59 | 135 | 0.9 | 1.7 | 0.00 | 0.00 | 0.00 | 81 | 1013.9 |
| 20260503214517 | 59 | 113 | 0.9 | 1.7 | 0.00 | 0.00 | 0.00 | 81 | 1014.0 |
| 20260503213517 | 59 | 113 | 0.9 | 2.6 | 0.00 | 0.00 | 0.00 | 81 | 1013.9 |
| 20260503212537 | 60 | 135 | 2.6 | 5.2 | 0.00 | 0.00 | 0.00 | 80 | 1013.9 |
| 20260503211516 | 60 | 113 | 1.7 | 3.5 | 0.00 | 0.00 | 0.00 | 81 | 1014.1 |
| 20260503210517 | 60 | 113 | 2.6 | 5.2 | 0.00 | 0.00 | 0.00 | 81 | 1014.1 |
| 20260503205517 | 60 | 113 | 1.7 | 3.5 | 0.00 | 0.00 | 0.00 | 82 | 1014.2 |
| 20260503204517 | 60 | 135 | 1.7 | 3.5 | 0.00 | 0.00 | 0.00 | 81 | 1014.3 |
| 20260503203536 | 60 | 135 | 3.5 | 5.2 | 0.00 | 0.00 | 0.00 | 81 | 1014.3 |
| 20260503202516 | 60 | 135 | 2.6 | 5.2 | 0.00 | 0.00 | 0.00 | 81 | 1014.4 |
| 20260503201517 | 60 | 135 | 3.5 | 7.0 | 0.00 | 0.00 | 0.00 | 80 | 1014.4 |
| 20260503200537 | 60 | 113 | 1.7 | 3.5 | 0.00 | 0.00 | 0.00 | 79 | 1014.3 |
| 20260503195516 | 60 | 135 | 2.6 | 3.5 | 0.00 | 0.00 | 0.00 | 78 | 1014.4 |
| 20260503194517 | 60 | 135 | 2.6 | 5.2 | 0.00 | 0.00 | 0.00 | 78 | 1014.3 |
| 20260503193516 | 60 | 158 | 2.6 | 5.2 | 0.00 | 0.00 | 0.00 | 77 | 1014.2 |
| 20260503192517 | 60 | 135 | 2.6 | 6.1 | 0.00 | 0.00 | 0.00 | 77 | 1014.1 |
| 20260503191517 | 60 | 135 | 4.3 | 7.8 | 0.00 | 0.00 | 0.00 | 76 | 1013.9 |
| 20260503190516 | 60 | 135 | 3.5 | 7.8 | 0.00 | 0.00 | 0.00 | 76 | 1013.7 |
| 20260503185516 | 60 | 135 | 3.5 | 7.8 | 0.00 | 0.00 | 0.00 | 77 | 1013.7 |
| 20260503184517 | 60 | 135 | 6.1 | 8.7 | 0.00 | 0.00 | 0.00 | 77 | 1013.6 |
| 20260503183516 | 60 | 135 | 5.2 | 9.6 | 0.00 | 0.00 | 0.00 | 77 | 1013.7 |
| 20260503182516 | 60 | 135 | 4.3 | 7.8 | 0.00 | 0.00 | 0.00 | 77 | 1013.6 |
| 20260503181516 | 61 | 158 | 4.3 | 7.8 | 0.00 | 0.00 | 0.00 | 78 | 1013.7 |
| 20260503180516 | 61 | 158 | 4.3 | 9.6 | 0.00 | 0.00 | 0.00 | 78 | 1013.7 |
| 20260503175518 | 61 | 135 | 5.2 | 8.7 | 0.00 | 0.00 | 0.00 | 78 | 1013.6 |
| 20260503174517 | 61 | 135 | 4.3 | 8.7 | 0.00 | 0.00 | 0.00 | 78 | 1013.7 |
| 20260503173519 | 61 | 158 | 5.2 | 9.6 | 0.00 | 0.00 | 0.00 | 79 | 1013.9 |
| 20260503172538 | 61 | 158 | 6.1 | 10.4 | 0.00 | 0.00 | 0.00 | 79 | 1013.6 |
| 20260503171518 | 62 | 158 | 7.0 | 11.3 | 0.00 | 0.00 | 0.00 | 79 | 1013.5 |
| 20260503170518 | 62 | 158 | 7.0 | 13.0 | 0.00 | 0.00 | 0.00 | 77 | 1013.4 |
| 20260503150518 | 65 | 135 | 5.2 | 8.7 | 0.00 | 0.00 | 0.00 | 67 | 1013.4 |